When you browse on this site, cookies collect data to enhance your experience and personalize the content and advertising you see.
Visit our Privacy Policy to learn more. By continuing to use the site, you agree to this use of cookies and data.

Hourly Weather Xiahu

Today, 6 July, Monday

Time Temperature Precipitation Wind Pressure Humidity
00:00 +28°C° 0.1 mm 6 mps 750 mmHg 93%
01:00 +28°C° 0.1 mm 6 mps 750 mmHg 93%
02:00 +28°C° 0 mm 5 mps 749 mmHg 92%
03:00 +28°C° 0 mm 6 mps 749 mmHg 93%
04:00 +28°C° 0 mm 6 mps 749 mmHg 93%
05:00 +27°C° 0 mm 6 mps 749 mmHg 93%
06:00 +28°C° 0 mm 6 mps 749 mmHg 92%
07:00 +28°C° 0 mm 6 mps 750 mmHg 91%
08:00 +29°C° 0 mm 6 mps 751 mmHg 88%
09:00 +30°C° 0 mm 6 mps 751 mmHg 85%
10:00 +32°C° 0 mm 7 mps 750 mmHg 81%
11:00 +32°C° 0 mm 7 mps 750 mmHg 78%
12:00 +32°C° 0 mm 8 mps 750 mmHg 78%
13:00 +32°C° 0 mm 9 mps 750 mmHg 78%
14:00 +32°C° 0 mm 9 mps 749 mmHg 79%
15:00 +32°C° 0.2 mm 9 mps 749 mmHg 80%
16:00 +32°C° 0.2 mm 9 mps 749 mmHg 81%
17:00 +31°C° 0.2 mm 9 mps 749 mmHg 83%
18:00 +31°C° 0 mm 8 mps 750 mmHg 84%
19:00 +29°C° 0 mm 8 mps 750 mmHg 86%
20:00 +29°C° 0 mm 8 mps 751 mmHg 88%
21:00 +29°C° 0 mm 8 mps 751 mmHg 89%
22:00 +28°C° 0 mm 7 mps 752 mmHg 90%
23:00 +28°C° 0 mm 7 mps 752 mmHg 91%

Tomorrow, 7 July, Tuesday

Time Temperature Precipitation Wind Pressure Humidity
00:00 +28°C° 0 mm 7 mps 752 mmHg 91%
01:00 +28°C° 0 mm 6 mps 751 mmHg 91%
02:00 +28°C° 0 mm 6 mps 751 mmHg 92%
03:00 +28°C° 0 mm 5 mps 751 mmHg 91%
04:00 +28°C° 0 mm 5 mps 751 mmHg 91%
05:00 +28°C° 0 mm 5 mps 751 mmHg 91%
06:00 +28°C° 0 mm 5 mps 751 mmHg 89%
07:00 +29°C° 0 mm 5 mps 752 mmHg 88%
08:00 +30°C° 0 mm 5 mps 752 mmHg 86%
09:00 +30°C° 0 mm 5 mps 752 mmHg 82%
10:00 +32°C° 0 mm 5 mps 752 mmHg 78%
11:00 +33°C° 0 mm 6 mps 752 mmHg 75%
12:00 +33°C° 0 mm 6 mps 752 mmHg 77%
13:00 +32°C° 0 mm 7 mps 751 mmHg 80%
14:00 +32°C° 0 mm 7 mps 751 mmHg 82%
15:00 +32°C° 0 mm 7 mps 751 mmHg 83%
16:00 +30°C° 0 mm 7 mps 751 mmHg 84%
17:00 +30°C° 0 mm 7 mps 751 mmHg 85%
18:00 +30°C° 0 mm 7 mps 751 mmHg 87%
19:00 +29°C° 0 mm 7 mps 751 mmHg 89%
20:00 +29°C° 0 mm 7 mps 752 mmHg 91%
21:00 +29°C° 0 mm 6 mps 752 mmHg 92%
22:00 +28°C° 0 mm 6 mps 752 mmHg 92%
23:00 +28°C° 0 mm 5 mps 753 mmHg 93%

Day after tomorrow, 8 July, Wednesday

Time Temperature Precipitation Wind Pressure Humidity
00:00 +28°C° 0 mm 5 mps 752 mmHg 93%
01:00 +28°C° 0 mm 4 mps 751 mmHg 94%
02:00 +28°C° 0 mm 4 mps 751 mmHg 94%
03:00 +28°C° 0.3 mm 3 mps 751 mmHg 94%
04:00 +28°C° 0.3 mm 3 mps 751 mmHg 95%
05:00 +28°C° 0.3 mm 2 mps 751 mmHg 95%
06:00 +28°C° 0.6 mm 2 mps 751 mmHg 94%
07:00 +28°C° 0.6 mm 2 mps 751 mmHg 93%
08:00 +29°C° 0.6 mm 2 mps 751 mmHg 93%
09:00 +29°C° 0.3 mm 2 mps 751 mmHg 92%
10:00 +30°C° 0.3 mm 3 mps 751 mmHg 91%
11:00 +30°C° 0.3 mm 3 mps 751 mmHg 90%
12:00 +30°C° 0.4 mm 3 mps 751 mmHg 89%
13:00 +31°C° 0.4 mm 3 mps 750 mmHg 89%
14:00 +32°C° 0.4 mm 4 mps 750 mmHg 88%
15:00 +30°C° 1 mm 4 mps 750 mmHg 89%
16:00 +30°C° 1 mm 4 mps 750 mmHg 89%
17:00 +30°C° 1 mm 4 mps 749 mmHg 90%
18:00 +29°C° 1 mm 3 mps 750 mmHg 91%
19:00 +29°C° 1 mm 3 mps 750 mmHg 92%
20:00 +28°C° 1 mm 2 mps 751 mmHg 92%
21:00 +28°C° 0.2 mm 2 mps 750 mmHg 91%
22:00 +28°C° 0.2 mm 2 mps 750 mmHg 90%
23:00 +28°C° 0.2 mm 2 mps 750 mmHg 88%

9 July, Thursday

Time Temperature Precipitation Wind Pressure Humidity
00:00 +28°C° 0 mm 2 mps 750 mmHg 88%
01:00 +28°C° 0 mm 2 mps 749 mmHg 88%
02:00 +28°C° 0 mm 1 mps 749 mmHg 88%
03:00 +28°C° 0.1 mm 1 mps 749 mmHg 89%
04:00 +28°C° 0.1 mm 1 mps 749 mmHg 90%
05:00 +28°C° 0.1 mm 1 mps 749 mmHg 91%
06:00 +28°C° 0.1 mm 1 mps 749 mmHg 90%
07:00 +28°C° 0.1 mm 1 mps 749 mmHg 90%
08:00 +28°C° 0.1 mm 2 mps 750 mmHg 89%
09:00 +28°C° 0.3 mm 2 mps 750 mmHg 89%
10:00 +28°C° 0.3 mm 2 mps 750 mmHg 89%
11:00 +28°C° 0.3 mm 2 mps 750 mmHg 89%
12:00 +29°C° 0.5 mm 3 mps 750 mmHg 89%
13:00 +29°C° 0.5 mm 4 mps 750 mmHg 88%
14:00 +29°C° 0.5 mm 5 mps 749 mmHg 88%
15:00 +28°C° 0.6 mm 5 mps 749 mmHg 89%
16:00 +28°C° 0.6 mm 4 mps 749 mmHg 90%
17:00 +28°C° 0.6 mm 4 mps 749 mmHg 91%
18:00 +27°C° 0.7 mm 4 mps 749 mmHg 91%
19:00 +27°C° 0.7 mm 4 mps 750 mmHg 91%
20:00 +27°C° 0.7 mm 4 mps 750 mmHg 91%
21:00 +27°C° 0.5 mm 4 mps 750 mmHg 92%
22:00 +27°C° 0.5 mm 4 mps 750 mmHg 93%
23:00 +26°C° 0.5 mm 4 mps 750 mmHg 93%

10 July, Friday

Time Temperature Precipitation Wind Pressure Humidity
00:00 +26°C° 0.3 mm 4 mps 750 mmHg 92%
01:00 +26°C° 0.3 mm 3 mps 750 mmHg 91%
02:00 +26°C° 0.3 mm 3 mps 750 mmHg 90%
03:00 +26°C° 0.1 mm 3 mps 750 mmHg 90%
04:00 +27°C° 0.1 mm 3 mps 750 mmHg 90%
05:00 +27°C° 0.1 mm 3 mps 750 mmHg 90%
06:00 +27°C° 0.1 mm 3 mps 750 mmHg 89%
07:00 +27°C° 0.1 mm 4 mps 750 mmHg 89%
08:00 +27°C° 0.1 mm 4 mps 751 mmHg 88%
09:00 +27°C° 0 mm 4 mps 751 mmHg 89%
10:00 +28°C° 0 mm 5 mps 751 mmHg 90%
11:00 +28°C° 0 mm 6 mps 751 mmHg 91%
12:00 +28°C° 0 mm 6 mps 751 mmHg 91%
13:00 +28°C° 0 mm 6 mps 751 mmHg 91%
14:00 +28°C° 0 mm 6 mps 751 mmHg 91%
15:00 +29°C° 0 mm 6 mps 750 mmHg 90%
16:00 +29°C° 0 mm 6 mps 750 mmHg 89%
17:00 +29°C° 0 mm 6 mps 750 mmHg 88%
18:00 +29°C° 0.1 mm 6 mps 750 mmHg 89%
19:00 +28°C° 0 mm 6 mps 750 mmHg 90%
20:00 +28°C° 0 mm 6 mps 751 mmHg 92%
21:00 +28°C° 0.1 mm 6 mps 751 mmHg 92%
22:00 +28°C° 0.1 mm 6 mps 751 mmHg 92%
23:00 +28°C° 0.1 mm 6 mps 751 mmHg 92%

11 July, Saturday

Time Temperature Precipitation Wind Pressure Humidity
00:00 +27°C° 0 mm 6 mps 751 mmHg 93%
01:00 +27°C° 0 mm 5 mps 750 mmHg 94%
02:00 +27°C° 0 mm 4 mps 750 mmHg 94%
03:00 +27°C° 0 mm 4 mps 750 mmHg 94%
04:00 +27°C° 0 mm 4 mps 750 mmHg 94%
05:00 +27°C° 0 mm 4 mps 750 mmHg 93%
06:00 +27°C° 0 mm 4 mps 751 mmHg 92%
07:00 +28°C° 0 mm 4 mps 751 mmHg 90%
08:00 +29°C° 0 mm 3 mps 751 mmHg 89%
09:00 +29°C° 0 mm 4 mps 751 mmHg 87%
10:00 +29°C° 0 mm 4 mps 751 mmHg 85%
11:00 +30°C° 0 mm 5 mps 752 mmHg 84%
12:00 +30°C° 0 mm 6 mps 751 mmHg 83%
13:00 +32°C° 0 mm 6 mps 751 mmHg 82%
14:00 +32°C° 0 mm 7 mps 750 mmHg 81%
15:00 +32°C° 0 mm 7 mps 750 mmHg 82%
16:00 +30°C° 0 mm 7 mps 750 mmHg 83%
17:00 +30°C° 0 mm 7 mps 750 mmHg 83%
18:00 +30°C° 0 mm 7 mps 750 mmHg 85%
19:00 +29°C° 0 mm 7 mps 750 mmHg 87%
20:00 +29°C° 0 mm 7 mps 751 mmHg 89%
21:00 +28°C° 0 mm 7 mps 751 mmHg 90%
22:00 +28°C° 0 mm 7 mps 751 mmHg 91%
23:00 +28°C° 0 mm 7 mps 752 mmHg 92%
Show more